Wind_Speed
5 4 4 3 3 2 2 1 1 1 1 1 0 1 1 1 1 2 2 2 3 4 4 5 5 6 6 5 6 6 6 6 6 6 7 7 6 6 6 6 6 6 7
5 4 4 3 3 2 1 1 0 0 0 1 1 2 2 2 3 3 3 3 3 4 4 5 6 6 6 7 7 7 7 7 7 7 7 8 8 8 7 7 7 8 8
4 3 2 2 2 2 1 0 1 1 1 2 2 3 3 3 4 4 4 4 4 4 5 5 6 7 7 7 7 7 7 7 7 7 8 8 8 8 9 9 9 9 9
3 2 2 2 2 1 0 1 2 2 2 3 3 3 4 4 4 4 4 4 4 5 5 6 6 7 7 7 8 8 8 8 8 8 8 8 9 9 9 9 9 9 10
2 1 2 1 0 1 1 2 3 3 4 4 4 4 4 4 4 4 5 5 5 5 6 6 6 7 7 7 8 8 8 8 8 9 9 9 10 10 10 10 9 10 10
2 1 1 1 2 3 3 3 4 4 4 4 5 5 5 5 5 5 5 6 6 6 6 6 7 7 7 7 8 7 8 9 10 10 10 11 10 11 11 10 10 10 10
2 1 2 2 3 4 4 4 4 4 5 5 6 5 5 5 5 6 6 7 6 7 7 7 7 7 8 8 8 8 8 9 10 10 10 11 11 11 11 11 11 10 10
3 2 2 3 4 4 4 5 5 5 6 6 6 7 6 7 7 7 7 7 7 7 7 7 8 8 8 8 8 8 9 10 10 11 11 12 12 12 12 12 11 11 11
4 4 4 5 5 5 6 6 6 7 7 7 7 7 7 8 8 9 9 8 8 8 8 8 9 9 9 9 9 10 11 11 11 12 12 13 13 13 13 13 12 12 12
6 5 5 6 6 7 7 8 7 8 8 8 8 8 8 9 9 9 9 9 9 9 9 10 11 10 10 11 11 11 12 12 12 12 12 13 13 13 14 14 14 13 13
7 7 7 7 7 8 8 8 8 9 9 9 9 9 9 10 10 10 10 10 10 10 11 12 12 13 13 13 13 13 13 13 13 13 13 13 14 14 15 15 15 15 15
9 9 9 9 9 9 9 9 10 10 10 10 10 10 10 10 11 11 12 12 12 12 13 14 14 15 15 15 15 15 15 15 15 14 14 14 15 16 16 16 16 16 17
11 11 11 11 11 11 11 11 11 11 11 11 12 11 11 11 12 13 13 13 13 14 14 15 15 16 16 16 16 16 16 16 16 16 16 17 17 17 17 18 18 18 18
13 13 13 13 14 14 14 13 13 13 13 13 12 13 13 14 14 14 15 15 15 15 16 16 17 17 17 17 17 17 17 17 17 18 18 19 19 20 19 19 19 20 20
15 14 15 15 16 16 16 16 15 15 15 14 15 15 15 15 16 15 16 16 16 16 16 17 18 18 18 18 19 20 20 20 20 20 20 21 20 20 20 20 21 21 21
17 17 17 17 18 19 19 18 17 17 17 17 17 17 18 18 17 17 17 18 18 18 17 18 18 18 19 20 21 21 22 22 22 22 22 22 22 22 22 23 23 23 23
20 20 20 20 20 20 20 20 20 20 20 19 19 19 19 19 20 20 20 20 19 19 19 20 20 20 21 21 22 23 24 24 24 24 24 24 24 24 24 24 25 26 26
22 22 22 22 22 22 22 22 22 22 22 21 21 21 21 22 21 21 21 21 21 20 21 22 22 22 22 23 23 24 25 25 25 25 25 25 26 26 26 26 26 27 27
24 25 24 24 24 24 24 24 24 25 24 23 23 23 23 23 23 23 22 22 23 23 23 24 24 24 24 24 25 25 25 25 25 26 26 27 27 28 27 27 27 27 27
26 26 27 27 26 26 26 26 26 25 25 24 24 24 25 24 24 24 24 24 25 25 25 26 26 26 26 26 27 27 26 26 27 27 28 28 28 29 29 28 27 27 27
27 28 28 29 28 28 28 28 28 28 27 26 26 27 26 26 26 26 26 27 27 28 28 28 28 28 28 28 28 28 28 29 29 29 30 29 29 29 29 28 28 28 29
30 30 30 30 29 29 29 29 29 29 28 28 28 28 27 27 27 28 28 28 29 30 30 30 30 30 30 30 30 30 31 31 31 31 31 30 30 30 30 29 29 30 30
32 32 32 32 32 31 31 31 31 31 31 31 30 29 29 29 29 29 29 30 31 32 31 32 32 31 31 31 31 32 32 32 33 32 32 31 31 32 31 31 31 31 31
34 34 34 34 34 33 33 32 32 32 32 31 31 31 30 31 31 32 32 32 32 32 32 32 32 33 33 33 33 33 33 33 33 33 33 32 32 33 32 31 31 31 31
36 36 35 35 35 35 34 34 34 34 33 33 33 32 33 32 33 34 34 34 34 33 34 33 33 33 34 34 34 34 35 35 35 34 34 34 34 34 33 32 32 32 33
37 37 37 37 37 36 35 35 35 35 34 34 34 34 34 35 35 36 36 36 35 35 35 35 35 35 35 35 36 36 35 35 35 35 35 35 34 34 33 33 33 33 33
Wind_Direction
147 138 136 134 129 122 106 98 106 117 122 146 274 296 317 328 292 281 270 265 268 270 270 275 282 289 292 297 302 304 309 309 297 290 291 294 298 299 299 299 293 289 290
145 138 128 125 121 118 98 77 99 251 225 235 256 266 287 284 285 279 273 268 271 268 268 273 277 283 289 292 294 295 298 303 300 295 291 293 296 297 298 296 295 293 292
153 151 133 119 115 109 84 18 290 275 272 276 274 274 284 292 285 284 275 271 270 270 270 274 277 282 287 292 295 296 299 299 303 300 299 296 297 299 296 294 293 293 291
174 159 160 140 135 134 326 315 303 289 290 291 287 292 294 298 295 287 287 281 278 279 278 283 286 284 288 291 293 295 298 300 300 302 301 299 296 297 302 301 290 290 291
184 176 155 147 185 293 306 306 303 293 295 296 294 297 296 295 297 290 289 288 283 284 286 289 293 288 289 290 293 290 293 301 302 301 301 299 297 297 301 302 294 291 291
189 190 177 238 299 308 304 301 303 301 297 296 293 290 291 295 294 290 286 284 281 284 289 289 288 289 292 290 290 290 292 297 300 301 305 306 305 306 304 296 293 295 293
196 208 244 282 300 307 308 304 302 298 296 300 299 290 290 292 298 296 291 287 280 282 287 291 292 293 295 294 293 294 296 301 306 307 307 308 307 304 307 302 295 292 295
217 240 272 290 302 306 308 309 304 302 299 298 295 289 285 285 293 300 297 292 288 288 289 291 292 292 292 290 293 296 298 300 302 302 304 305 306 305 303 301 299 292 291
248 265 276 282 289 300 307 307 303 300 298 298 297 291 287 287 290 294 295 289 288 289 288 289 290 286 285 286 289 294 296 298 300 301 301 303 305 306 308 301 297 295 290
259 269 277 282 285 293 299 301 300 301 301 300 293 289 288 290 290 289 290 291 289 291 290 287 285 282 283 284 287 293 299 299 299 299 300 302 303 303 304 300 296 293 291
261 271 280 286 290 293 296 297 296 305 305 302 295 290 290 293 293 294 292 293 292 291 290 288 283 282 283 284 285 288 292 296 297 298 298 299 300 301 301 299 295 292 287
261 269 276 282 288 291 292 294 296 298 298 298 295 292 292 293 295 297 296 292 291 292 292 290 284 284 283 283 285 286 287 290 293 294 297 298 298 297 298 299 295 291 287
264 267 272 278 283 287 288 289 289 290 291 293 292 289 290 290 291 293 293 292 291 292 294 295 289 287 285 283 285 286 288 289 291 293 295 296 297 296 295 296 296 292 289
269 271 272 275 278 281 283 286 285 285 287 289 288 287 288 287 288 289 289 288 289 291 292 292 291 287 286 284 282 283 285 288 290 292 294 294 295 295 294 292 294 292 290
270 272 273 276 278 278 279 281 283 282 283 284 285 284 285 285 286 288 289 289 288 292 295 295 293 291 289 287 284 283 283 285 287 290 292 293 294 294 292 291 292 292 290
270 273 276 277 281 281 277 276 278 281 281 282 283 285 285 284 284 285 288 289 288 288 290 294 293 293 292 291 287 284 283 283 285 287 289 290 291 292 291 291 291 291 290
272 274 276 278 281 283 282 277 276 278 280 282 282 284 284 286 284 283 285 287 287 286 288 291 292 291 292 293 289 285 284 284 285 286 286 288 289 290 291 291 290 290 290
277 277 278 279 281 282 282 281 278 278 278 278 280 282 283 284 284 285 284 284 284 285 287 289 290 290 290 291 290 288 286 285 285 285 285 287 288 289 290 290 290 289 289
276 278 279 280 281 281 282 281 281 280 278 277 278 279 280 282 282 282 282 282 283 283 285 287 287 287 288 289 289 288 288 287 286 285 284 285 287 289 289 290 290 290 289
276 276 277 278 279 280 281 280 280 281 279 277 277 278 279 280 281 282 281 280 281 283 284 285 285 286 286 286 287 287 286 287 287 285 285 285 286 288 289 289 288 288 288
277 278 278 279 279 280 280 279 278 278 279 277 276 276 276 276 279 280 280 280 280 283 284 284 284 284 284 284 285 286 286 286 286 286 286 286 287 288 288 286 286 287 288
276 277 279 280 280 280 278 278 278 277 277 277 275 274 276 276 279 279 281 280 280 282 283 283 282 283 284 284 285 287 287 287 286 286 287 287 287 287 286 285 285 287 288
276 276 277 278 278 278 278 276 276 276 274 274 275 274 274 274 276 279 281 281 281 282 282 282 282 282 283 283 285 285 285 286 286 287 287 286 285 286 284 283 286 287 287
275 274 274 275 275 275 275 275 274 274 273 273 274 274 274 275 276 278 280 281 282 281 282 283 283 283 284 285 285 285 285 286 286 286 286 285 284 285 285 284 285 286 286
274 274 275 275 274 274 274 273 273 272 272 271 271 272 274 276 277 279 280 281 281 281 281 281 282 283 284 284 284 284 285 285 285 285 285 286 286 286 285 284 285 285 286
272 273 274 275 274 273 272 272 271 270 271 271 271 272 274 276 278 278 280 281 282 280 281 281 281 281 281 282 282 283 283 284 285 285 285 286 285 286 286 286 286 286 287
Height
5914 5914 5915 5915 5915 5914 5914 5914 5914 5914 5914 5914 5914 5914 5914 5914 5913 5913 5913 5913 5913 5912 5912 5912 5911 5911 5911 5910 5910 5909 5908 5908 5907 5906 5906 5905 5904 5904 5903 5903 5902 5902 5901
5915 5915 5915 5915 5915 5915 5914 5914 5914 5914 5914 5914 5914 5914 5914 5913 5913 5912 5912 5912 5911 5911 5911 5911 5910 5910 5909 5909 5908 5908 5907 5906 5906 5905 5904 5903 5903 5903 5902 5901 5901 5900 5900
5915 5915 5915 5915 5915 5915 5915 5914 5914 5914 5914 5914 5914 5913 5913 5912 5912 5911 5911 5910 5910 5910 5910 5909 5909 5909 5908 5908 5907 5906 5906 5905 5904 5903 5902 5902 5901 5901 5900 5899 5899 5898 5898
5915 5915 5915 5915 5915 5915 5915 5914 5914 5914 5913 5913 5913 5912 5912 5911 5911 5910 5910 5909 5909 5909 5908 5908 5908 5907 5907 5906 5906 5905 5904 5903 5903 5902 5901 5900 5900 5899 5898 5897 5897 5896 5895
5916 5916 5916 5916 5915 5915 5915 5914 5914 5913 5913 5912 5912 5911 5911 5910 5910 5909 5909 5908 5908 5908 5907 5907 5906 5906 5905 5905 5904 5903 5903 5902 5901 5900 5899 5898 5898 5897 5896 5895 5894 5894 5893
5915 5915 5916 5916 5915 5915 5914 5913 5913 5912 5912 5911 5911 5910 5910 5909 5909 5908 5908 5907 5907 5907 5906 5906 5905 5905 5904 5903 5902 5902 5901 5900 5899 5898 5897 5897 5896 5895 5894 5893 5892 5892 5891
5915 5915 5915 5915 5915 5914 5913 5912 5912 5912 5911 5910 5910 5909 5909 5908 5908 5907 5906 5906 5905 5905 5905 5904 5903 5903 5902 5901 5901 5900 5899 5899 5897 5897 5896 5895 5894 5893 5892 5891 5890 5889 5889
5914 5914 5914 5914 5914 5913 5912 5911 5911 5910 5910 5909 5909 5908 5908 5908 5907 5906 5905 5904 5904 5903 5903 5902 5902 5901 5900 5900 5899 5899 5898 5897 5896 5895 5894 5893 5892 5891 5890 5889 5888 5887 5886
5913 5913 5913 5913 5912 5912 5911 5910 5910 5909 5908 5908 5907 5907 5906 5906 5905 5905 5903 5903 5902 5902 5901 5900 5900 5899 5898 5898 5897 5897 5896 5895 5894 5893 5892 5890 5889 5888 5887 5886 5885 5884 5883
5912 5912 5912 5912 5911 5910 5910 5909 5908 5907 5907 5906 5905 5905 5904 5904 5903 5902 5902 5901 5900 5899 5899 5898 5897 5897 5896 5895 5895 5894 5893 5892 5891 5890 5889 5888 5887 5885 5884 5883 5882 5881 5880
5911 5911 5911 5910 5910 5909 5908 5907 5906 5905 5905 5904 5903 5902 5902 5901 5900 5900 5899 5898 5898 5897 5896 5895 5894 5894 5893 5892 5892 5891 5890 5889 5888 5887 5886 5885 5884 5882 5881 5880 5879 5878 5877
5909 5909 5908 5908 5908 5907 5906 5905 5904 5904 5903 5902 5900 5900 5899 5898 5898 5897 5896 5895 5895 5894 5893 5892 5891 5891 5890 5889 5888 5888 5887 5886 5885 5884 5883 5882 5880 5879 5878 5876 5875 5874 5873
5906 5906 5906 5905 5905 5904 5903 5903 5902 5901 5900 5899 5898 5897 5896 5895 5895 5894 5893 5892 5891 5891 5890 5888 5887 5887 5886 5885 5884 5883 5883 5882 5881 5880 5879 5878 5877 5875 5874 5873 5871 5870 5869
5904 5903 5903 5902 5901 5901 5900 5900 5899 5898 5897 5896 5895 5894 5893 5892 5891 5890 5889 5888 5888 5887 5885 5884 5883 5882 5881 5881 5880 5879 5879 5878 5877 5876 5875 5873 5872 5871 5870 5868 5867 5865 5864
5900 5900 5899 5899 5898 5897 5896 5896 5895 5894 5893 5892 5891 5890 5890 5888 5887 5886 5885 5884 5883 5883 5881 5880 5879 5878 5877 5876 5875 5875 5874 5873 5872 5871 5870 5869 5867 5866 5865 5863 5862 5860 5859
5896 5896 5895 5894 5894 5893 5892 5891 5890 5890 5889 5888 5887 5886 5885 5884 5883 5882 5881 5880 5879 5878 5877 5876 5874 5873 5872 5871 5870 5869 5868 5867 5867 5866 5865 5863 5862 5861 5859 5858 5856 5855 5853
5891 5891 5890 5890 5889 5888 5887 5886 5885 5885 5884 5883 5883 5882 5881 5879 5878 5877 5877 5876 5874 5873 5872 5871 5870 5869 5867 5866 5865 5863 5862 5861 5861 5860 5859 5858 5856 5855 5853 5852 5850 5849 5847
5887 5886 5885 5884 5884 5883 5882 5881 5880 5879 5879 5878 5877 5876 5875 5874 5873 5872 5871 5870 5869 5868 5867 5866 5865 5863 5862 5860 5859 5858 5856 5855 5854 5853 5852 5851 5850 5848 5847 5845 5843 5842 5840
5881 5880 5880 5879 5878 5877 5876 5875 5874 5874 5873 5872 5871 5870 5869 5868 5867 5866 5865 5865 5864 5863 5862 5861 5859 5858 5856 5854 5853 5851 5850 5848 5847 5846 5845 5844 5843 5841 5840 5838 5836 5834 5833
5875 5874 5873 5873 5872 5871 5870 5869 5868 5867 5866 5865 5864 5864 5863 5862 5862 5860 5859 5859 5857 5856 5855 5854 5853 5851 5850 5848 5846 5845 5843 5842 5841 5839 5838 5837 5835 5834 5832 5830 5829 5827 5825
5868 5867 5866 5866 5865 5864 5863 5862 5861 5860 5859 5859 5858 5857 5856 5855 5855 5854 5853 5852 5851 5850 5848 5847 5846 5844 5843 5841 5839 5837 5836 5834 5833 5832 5830 5829 5827 5826 5824 5822 5821 5819 5817
5861 5860 5859 5858 5857 5856 5855 5854 5853 5853 5852 5851 5850 5849 5848 5848 5847 5846 5845 5844 5843 5842 5841 5839 5838 5836 5835 5833 5831 5830 5828 5827 5825 5824 5822 5820 5819 5817 5816 5814 5812 5811 5809
5852 5851 5850 5849 5848 5848 5847 5846 5845 5844 5844 5843 5842 5842 5841 5840 5840 5839 5838 5836 5835 5833 5832 5831 5829 5828 5826 5825 5823 5821 5820 5818 5817 5815 5813 5812 5810 5808 5807 5805 5804 5802 5800
5843 5842 5841 5840 5839 5838 5838 5837 5836 5835 5835 5835 5834 5833 5833 5832 5831 5830 5829 5828 5827 5825 5823 5822 5821 5820 5818 5816 5815 5813 5811 5810 5808 5806 5804 5803 5801 5799 5798 5796 5795 5793 5791
5833 5832 5831 5830 5829 5829 5828 5827 5827 5826 5826 5825 5825 5825 5824 5823 5822 5821 5820 5819 5817 5816 5814 5813 5812 5810 5808 5807 5805 5804 5802 5800 5799 5797 5795 5793 5792 5790 5788 5787 5785 5783 5782
5822 5822 5821 5820 5819 5819 5818 5818 5817 5816 5816 5816 5816 5815 5815 5814 5813 5811 5810 5809 5808 5806 5805 5803 5802 5800 5799 5797 5795 5794 5792 5791 5789 5788 5786 5784 5782 5780 5779 5777 5775 5773 5772